EW9013 Weather Reports


Display with metric or nautical units.
time (UTC)temp
F
wind
direction
speed
MPH
gust
MPH
rain 1hr
in
rain 24hr
in
rain mn
in
humidity
%
barometer
mb
20260505041550 77 93 1.0 5.0 0.00 0.05 0.00 83 1016.8
20260505040036 77 74 3.0 7.0 0.00 0.05 0.00 84 1017.0
20260505034534 77 77 3.0 6.0 0.00 0.05 0.05 84 1017.1
20260505033035 77 60 2.0 5.0 0.00 0.05 0.05 84 1017.3
20260505031534 77 89 2.0 4.0 0.00 0.05 0.05 84 1017.5
20260505030036 77 84 2.0 5.0 0.00 0.05 0.05 84 1017.7
20260505024533 78 65 2.0 10.0 0.00 0.05 0.05 82 1017.7
20260505023032 78 75 1.0 3.0 0.00 0.05 0.05 80 1017.7
20260505021533 79 89 2.0 4.0 0.00 0.05 0.05 80 1017.8
20260505020039 78 103 0.0 3.0 0.00 0.05 0.05 80 1017.7
20260505014543 78 113 1.0 3.0 0.00 0.05 0.05 80 1017.6
20260505013038 78 73 2.0 5.0 0.00 0.05 0.05 80 1017.5
20260505011535 78 64 2.0 5.0 0.00 0.05 0.05 80 1017.1
20260505010028 78 100 1.0 5.0 0.00 0.05 0.05 80 1016.9
20260505004540 79 88 1.0 5.0 0.00 0.05 0.05 80 1016.7
20260505003048 79 106 0.0 5.0 0.00 0.05 0.05 80 1016.6
20260505001527 79 107 0.0 5.0 0.00 0.05 0.05 80 1016.5
20260505000031 79 108 1.0 6.0 0.00 0.05 0.05 80 1016.4
20260504234525 79 70 2.0 5.0 0.00 0.05 0.05 79 1016.4
20260504233024 79 75 2.0 5.0 0.00 0.05 0.05 79 1016.1
20260504231523 79 115 1.0 6.0 0.00 0.05 0.05 77 1016.0
20260504230023 79 102 2.0 6.0 0.00 0.05 0.05 77 1015.8
20260504224522 80 68 1.0 8.0 0.00 0.05 0.05 77 1015.7
20260504223023 80 120 3.0 9.0 0.00 0.05 0.05 76 1015.5
20260504221522 81 87 1.0 11.0 0.00 0.05 0.05 76 1015.4
20260504220020 81 110 3.0 8.0 0.00 0.05 0.05 76 1015.4
20260504214522 81 99 3.0 12.0 0.00 0.05 0.05 74 1015.2
20260504213025 81 127 4.0 13.0 0.00 0.05 0.05 73 1015.1
20260504211529 82 106 2.0 10.0 0.00 0.05 0.05 74 1015.0
20260504210017 83 87 4.0 12.0 0.00 0.05 0.05 72 1014.9
20260504204519 83 89 4.0 11.0 0.01 0.05 0.05 72 1014.8
20260504203016 83 138 5.0 12.0 0.01 0.05 0.05 72 1014.8
20260504201514 84 109 3.0 11.0 0.01 0.05 0.05 72 1014.8
20260504200013 83 105 3.0 11.0 0.01 0.05 0.05 72 1014.9
20260504194512 83 97 2.0 11.0 0.00 0.04 0.04 72 1015.0
20260504193012 82 102 4.0 14.0 0.00 0.04 0.04 72 1014.9
20260504191511 82 88 3.0 8.0 0.00 0.04 0.04 74 1015.0
20260504190008 84 8 4.0 12.0 0.00 0.04 0.04 70 1015.1
20260504184506 86 80 4.0 16.0 0.00 0.04 0.04 67 1015.3
20260504183009 87 156 5.0 12.0 0.00 0.04 0.04 66 1015.4
20260504181505 84 30 2.0 10.0 0.00 0.04 0.04 71 1015.7
20260504180002 84 99 4.0 19.0 0.00 0.04 0.04 69 1016.2
20260504174604 87 63 3.0 9.0 0.00 0.04 0.04 66 1015.9
20260504173059 88 91 4.0 12.0 0.00 0.04 0.04 66 1016.1
20260504171556 87 27 3.0 13.0 0.00 0.04 0.04 68 1016.2
20260504081527 0 0.0 0.0 0.00 0.02 0.02 1015.8
20260504044533 78 86 3.0 7.0 0.00 0.00 0.00 81 1016.1